This demonstration page uses our WeatherBlox Daily Observations layout. Learn more.

Left ArrowRight Arrow

Hourly Observations for August 15, 2015

Temp ( °F °C ) Dew Point ( °F °C ) Humidity (%) Winds ( mph kmh ) Pressure ( in mb ) Visibility ( mi km ) Precip ( " mm )
12:53 am 00:53 Clear with Mist and Fog 65 18.3 64 17.8 97 97 N N/A 30.14 1021 4 6 N/A
1:53 am 01:53 Clear with Mist and Fog 64 17.8 63 17.2 96 96 N N/A 30.14 1021 4 6 N/A
2:28 am 02:28 Clear with Mist and Fog 64 17.8 63 17.2 96 96 N N/A 30.12 1020 3 4 N/A
2:40 am 02:40 Clear with Mist and Fog 64 17.8 62 16.7 93 93 N N/A 30.12 1020 5 8 N/A
2:53 am 02:53 Clear with Mist and Fog 64 17.8 63 17.2 96 96 N N/A 30.14 1021 6 10 N/A
3:28 am 03:28 Clear with Mist and Fog 64 17.8 63 17.2 96 96 N N/A 30.12 1020 3 4 N/A
3:38 am 03:38 Clear with Mist and Fog 64 17.8 63 17.2 96 96 N N/A 30.12 1020 3 5 N/A
3:53 am 03:53 Clear with Mist and Fog 64 17.8 63 17.2 96 96 N N/A 30.12 1020 4 6 N/A
4:35 am 04:35 Cloudy with Mist and Fog 66 18.9 65 18.3 96 96 N N/A 30.12 1020 3 4 N/A
4:42 am 04:42 Cloudy with Mist and Fog 67 19.4 66 18.9 97 97 NNW 8 13 30.15 1021 5 8 N/A
4:53 am 04:53 Cloudy with Mist and Fog 68 20 66 18.9 93 93 NW 3 6 30.15 1021 6 10 N/A
5:53 am 05:53 Clear with Mist and Fog 66 18.9 65 18.3 96 96 N N/A 30.12 1020 4 6 N/A
6:07 am 06:07 Clear with Mist and Fog 66 18.9 65 18.3 96 96 N N/A 30.12 1020 3 4 N/A
6:14 am 06:14 Clear with Mist and Fog 67 19.4 65 18.3 93 93 WNW 8 13 30.12 1020 4 6 N/A
6:53 am 06:53 Sunny with Mist and Fog 66 18.9 65 18.3 96 96 N N/A 30.12 1020 4 6 N/A
7:53 am 07:53 Partly Cloudy with Mist and Fog 67 19.4 66 18.9 97 97 N N/A 30.14 1021 5 8 N/A
8:53 am 08:53 Sunny 69 20.6 67 19.4 93 93 N N/A 30.15 1021 7 11 N/A
9:53 am 09:53 Sunny 71 21.7 66 18.9 84 84 N N/A 30.16 1021 9 14 N/A
10:53 am 10:53 Sunny 72 22.2 67 19.4 84 84 WNW 3 6 30.18 1022 10 16 N/A
11:53 am 11:53 Mostly Sunny 77 25 68 20 74 74 N N/A 30.18 1022 10 16 N/A
12:53 pm 12:53 Mostly Sunny 80 26.7 68 20 67 67 WNW 5 7 30.16 1022 10 16 N/A
1:53 pm 13:53 Mostly Sunny 82 27.8 66 18.9 58 58 VRB 3 6 30.16 1021 10 16 N/A
2:53 pm 14:53 Mostly Sunny 84 28.9 65 18.3 53 53 NW 3 6 30.15 1021 10 16 N/A
3:53 pm 15:53 Mostly Sunny 84 28.9 64 17.8 51 51 NW 10 17 30.13 1020 10 16 N/A
4:53 pm 16:53 Sunny 81 27.2 65 18.3 58 58 NNW 8 13 30.12 1020 10 16 N/A
5:53 pm 17:53 Sunny 83 28.3 63 17.2 51 51 NNW 5 7 30.11 1020 10 16 N/A
6:53 pm 18:53 Sunny 81 27.2 65 18.3 58 58 NW 3 6 30.10 1019 10 16 N/A
7:53 pm 19:53 Sunny 77 25 70 21.1 79 79 NNW 3 6 30.11 1020 10 16 N/A
8:53 pm 20:53 Clear 70 21.1 67 19.4 90 90 N N/A 30.11 1020 10 16 N/A
9:53 pm 21:53 Clear 69 20.6 67 19.4 93 93 N N/A 30.14 1021 10 16 N/A
10:53 pm 22:53 Clear 68 20 66 18.9 93 93 N N/A 30.15 1021 10 16 N/A
11:53 pm 23:53 Clear 67 19.4 65 18.3 93 93 N N/A 30.15 1021 10 16 N/A

Powered by AerisWeather